"Pseudo-MPEC" for P10Iju4

Created 2018 Jul 17 18:18:06 UT using Find_Orb

Click here for an explanation of pseudo-MPECs

 
 Astrometry: 
     P10Iju4  C2018 07 10D`AstrometryiCUm_T7Fv)wq)s;?T#k'\60p1A;qd8'Xx[Ni[Ne;F51
     P10Iju4  C2018 07 10Wbfa6'D_rLAb\8sX-redacted;EByLTQsee-(@BW`7h$O8+0]D(cF51
     P10Iju4  C2018 07 10fjyX=W?brhTJO7DqH*c6-gfELP\q2E7VEIsVB6V:$ed./YJNEOCPF51

Station data:
(F51) Pan-STARRS 1, Haleakala  (N20.707235 W156.255910)  US/Hawaii.
   Observers N. Primak, A. Schultz, S. Watters, J. Thiel, T. Goggia. Measurer
   PS1 Science Consortium. 1.8-m Ritchey-Chrétien + CCD.

Orbital elements:  P10Iju4
   Perihelion 2019 Jan 6.662541 +/- 58.3 TT = 15:54:03 (JD 2458490.162541)
Epoch 2018 Jul 11.0 TT = JDT 2458310.5   Earth MOID: 0.0186   AutoNEOCP
M 189.41484 +/- 120                 (J2000 ecliptic)
n   0.94947533 +/- 0.468            Peri.  165.26741 +/- 100
a   1.02521178 +/- 0.337            Node   294.80379 +/- 38
e   0.0231167 +/- 0.278             Incl.    6.19968 +/- 17
P   1.04/379.15d           H 26.7   G  0.15   U 12.2  SR
q 1.00151218 +/- 0.287    Q 1.04891138 +/- 25.1
From 3 observations 2018 July 10 (26.0 min); mean residual 0".00
Residuals in arcseconds: 
180710 F51  .00   .00     180710 F51  .01+  .00     180710 F51  .00   .00     

Ephemerides (geocentric):
Date (UTC) HH   RA              Dec         delta   r     elong  mag " sig PA
---- -- -- --  -------------   -----------  ------ ------ -----  --- ---- ---
2018 07 17 18  20 30 56.052   -17 34 37.36  .03226 1.0480 169.1 20.0  64d  25
2018 07 17 19  20 30 41.060   -17 27 16.58  .03225 1.0480 169.1 20.0  64d  25
2018 07 17 20  20 30 26.079   -17 19 55.55  .03224 1.0480 169.2 20.0  64d  25
2018 07 17 21  20 30 11.110   -17 12 34.28  .03224 1.0480 169.2 20.0  64d  25
2018 07 17 22  20 29 56.152   -17 05 12.79  .03223 1.0480 169.3 20.0  64d  25
2018 07 17 23  20 29 41.205   -16 57 51.07  .03222 1.0480 169.3 20.0  64d  25
2018 07 18 00  20 29 26.270   -16 50 29.13  .03222 1.0480 169.4 20.0  64d  25
2018 07 18 01  20 29 11.347   -16 43 06.98  .03221 1.0480 169.4 20.0  64d  25
2018 07 18 02  20 28 56.436   -16 35 44.62  .03221 1.0480 169.4 20.0  64d  25
2018 07 18 03  20 28 41.536   -16 28 22.07  .03220 1.0480 169.5 20.0  64d  25
2018 07 18 04  20 28 26.649   -16 20 59.32  .03220 1.0480 169.5 20.0  64d  25
2018 07 18 05  20 28 11.773   -16 13 36.40  .03219 1.0480 169.5 20.0  64d  25
2018 07 18 06  20 27 56.910   -16 06 13.29  .03219 1.0480 169.6 20.0  64d  25
2018 07 18 07  20 27 42.059   -15 58 50.02  .03218 1.0480 169.6 20.0  65d  25
2018 07 18 08  20 27 27.220   -15 51 26.58  .03218 1.0480 169.6 20.0  65d  25
2018 07 18 09  20 27 12.393   -15 44 02.99  .03217 1.0480 169.6 20.0  65d  25
2018 07 18 10  20 26 57.579   -15 36 39.24  .03217 1.0480 169.7 20.0  65d  25
2018 07 18 11  20 26 42.777   -15 29 15.36  .03217 1.0480 169.7 20.0  65d  25
2018 07 18 12  20 26 27.988   -15 21 51.33  .03216 1.0480 169.7 20.0  65d  25
2018 07 18 13  20 26 13.212   -15 14 27.18  .03216 1.0479 169.7 20.0  65d  25
2018 07 18 14  20 25 58.448   -15 07 02.91  .03216 1.0479 169.7 20.0  65d  25
2018 07 18 15  20 25 43.697   -14 59 38.52  .03215 1.0479 169.7 20.0  65d  24
2018 07 18 16  20 25 28.959   -14 52 14.02  .03215 1.0479 169.7 20.0  65d  24
2018 07 18 17  20 25 14.234   -14 44 49.43  .03215 1.0479 169.7 20.0  65d  24
2018 07 18 18  20 24 59.523   -14 37 24.73  .03215 1.0479 169.8 20.0  65d  24
2018 07 18 19  20 24 44.824   -14 29 59.96  .03214 1.0479 169.8 20.0  65d  24
2018 07 18 20  20 24 30.138   -14 22 35.10  .03214 1.0479 169.8 20.0  65d  24
2018 07 18 21  20 24 15.466   -14 15 10.16  .03214 1.0479 169.7 20.0  65d  24
2018 07 18 22  20 24 00.807   -14 07 45.16  .03214 1.0479 169.7 20.0  65d  24
2018 07 18 23  20 23 46.161   -14 00 20.10  .03214 1.0479 169.7 20.0  65d  24
2018 07 19 00  20 23 31.529   -13 52 54.99  .03214 1.0479 169.7 20.0  66d  24
2018 07 19 01  20 23 16.911   -13 45 29.83  .03214 1.0479 169.7 20.0  66d  24
2018 07 19 02  20 23 02.306   -13 38 04.64  .03213 1.0479 169.7 20.0  66d  24
2018 07 19 03  20 22 47.715   -13 30 39.41  .03213 1.0479 169.7 20.0  66d  24
2018 07 19 04  20 22 33.137   -13 23 14.16  .03213 1.0479 169.7 20.0  66d  24
2018 07 19 05  20 22 18.574   -13 15 48.89  .03213 1.0479 169.6 20.0  66d  24
2018 07 19 06  20 22 04.024   -13 08 23.61  .03213 1.0479 169.6 20.0  66d  24
2018 07 19 07  20 21 49.488   -13 00 58.32  .03214 1.0479 169.6 20.0  66d  24
2018 07 19 08  20 21 34.967   -12 53 33.04  .03214 1.0479 169.6 20.0  66d  24
2018 07 19 09  20 21 20.459   -12 46 07.77  .03214 1.0479 169.5 20.0  66d  24
2018 07 19 10  20 21 05.966   -12 38 42.51  .03214 1.0478 169.5 20.0  66d  24
2018 07 19 11  20 20 51.487   -12 31 17.28  .03214 1.0478 169.5 20.0  66d  24
2018 07 19 12  20 20 37.022   -12 23 52.08  .03214 1.0478 169.4 20.0  66d  24
2018 07 19 13  20 20 22.572   -12 16 26.91  .03214 1.0478 169.4 20.0  66d  24
2018 07 19 14  20 20 08.136   -12 09 01.80  .03214 1.0478 169.4 20.0  66d  24
2018 07 19 15  20 19 53.714   -12 01 36.73  .03215 1.0478 169.3 20.0  66d  24
2018 07 19 16  20 19 39.307   -11 54 11.72  .03215 1.0478 169.3 20.0  66d  24
2018 07 19 17  20 19 24.915   -11 46 46.78  .03215 1.0478 169.2 20.0  66d  24